Location: Burbank
(38.7788°N, 114.0429°W)
Time: 20:40:01
(UTC+00:00)

Vanguard 2 - Pass Details

Date: 11 May 2026
Orbit: 553 x 2894 km, 32.9° (Epoch: 6 June)

Event Time Altitude Azimuth Distance (km) Brightness Sun altitude
Rises 16:02:36 0° 279° (W) 5,921 11.6 40.2°
Reaches altitude 10° 16:07:26 10° 272° (W) 4,537 11.1 41.1°
Maximum altitude 16:17:26 34° 214° (SSW) 2,231 10.1 43.0°
Drops below altitude 10° 16:23:56 10° 151° (SSE) 2,917 11.1 44.2°
Sets 16:26:23 0° 141° (SE) 3,614 11.5 44.7°
